This demonstration page uses our WeatherBlox Daily Observations layout. Learn more.

Left ArrowRight Arrow

41.12389, -100.76542

Hourly Observations for May 17, 2017

Temp ( °F °C ) Dew Point ( °F °C ) Humidity (%) Winds ( mph kmh ) Pressure ( in mb ) Visibility ( mi km ) Precip ( " mm )
12:53 am 00:53 Cloudy with Light Rain 55 12.8 55 12.8 100 100 N 3 6 29.50 999 10 16 0.08 2.03
1:53 am 01:53 Clear 55 13 N/A N/A N 15 24 29.41 996 10 16 0.01 0.25
2:53 am 02:53 Mostly Cloudy 55 12.8 55 12.8 100 100 WNW 12 19 29.44 997 10 16 0.00 0.00
3:41 am 03:41 Mostly Clear 54 12.2 53 11.7 97 97 N 14 22 29.44 997 10 16 0.00 0.00
3:53 am 03:53 Mostly Clear 54 12.2 53 11.7 97 97 N 9 15 29.39 995 10 16 0.00 0.00
4:51 am 04:51 Mostly Cloudy 54 12 54 12 100 100 N 6 9 29.44 997 10 16 0.00 0.00
4:53 am 04:53 Mostly Cloudy 53 11.7 53 11.7 100 100 N 7 11 29.41 996 10 16 0.00 0.00
5:53 am 05:53 Cloudy 55 12.8 55 12.8 100 100 NNE 10 17 29.41 996 10 16 0.00 0.00
6:32 am 06:32 Cloudy 55 12.8 55 12.8 100 100 N 7 11 29.44 997 10 16 0.00 0.00
6:53 am 06:53 Cloudy 55 12.8 55 12.8 100 100 N 8 13 29.41 996 10 16 0.00 0.00
7:53 am 07:53 Cloudy 56 13.3 54 12.2 93 93 N 10 17 29.40 996 10 16 0.00 0.00
8:53 am 08:53 Cloudy 56 13.3 54 12.2 93 93 NNW 12 19 29.37 995 10 16 0.00 0.00
9:53 am 09:53 Cloudy 57 13.9 55 12.8 93 93 NNW 8 13 29.40 996 10 16 0.00 0.00
10:53 am 10:53 Cloudy 57 13.9 55 12.8 93 93 NNW 13 20 29.41 996 10 16 0.01 0.25
11:27 am 11:27 Cloudy with Light Rain 55 12.8 54 12.2 96 96 NNW 15 24 29.44 997 7 11 0.01 0.25
11:53 am 11:53 Cloudy with Light Rain 55 12.8 54 12.2 96 96 NW 14 22 29.44 997 7 11 0.03 0.76
12:51 pm 12:51 Cloudy with Light Rain 55 13 54 12 94 94 NW 20 31 29.44 997 10 16 0.01 0.25
12:53 pm 12:53 Cloudy with Light Rain 55 12.8 54 12.2 96 96 NW 22 35 29.45 997 10 16 0.01 0.25
1:25 pm 13:25 Cloudy 56 13.3 54 12.2 93 93 NW 20 31 29.47 998 10 16 0.01 0.25
1:53 pm 13:53 Cloudy 57 13.9 52 11.1 83 83 NW 23 37 29.46 998 10 16 0.01 0.25
2:14 pm 14:14 Cloudy 60 15.6 54 12.2 80 80 NW 23 37 29.44 997 10 16 0.00 0.00
2:37 pm 14:37 Cloudy 61 16.1 55 12.8 81 81 NW 21 33 29.44 997 10 16 0.00 0.03
2:53 pm 14:53 Cloudy 62 16.7 55 12.8 78 78 NW 24 39 29.45 997 10 16 0.00 0.03
3:36 pm 15:36 Cloudy 61 16.1 53 11.7 75 75 NNW 22 35 29.44 997 10 16 0.00 0.00
3:53 pm 15:53 Cloudy 59 15 53 11.7 81 81 NNW 18 30 29.49 999 10 16 0.00 0.00
4:53 pm 16:53 Cloudy 62 16.7 51 10.6 67 67 N 20 31 29.51 999 10 16 0.00 0.00
5:53 pm 17:53 Partly Cloudy 63 17.2 48 8.9 58 58 NNW 15 24 29.53 1000 10 16 0.00 0.00
6:53 pm 18:53 Partly Cloudy 62 16.7 49 9.4 62 62 N 17 28 29.57 1001 10 16 0.00 0.00
7:53 pm 19:53 Mostly Sunny 59 15 49 9.4 69 69 N 15 24 29.63 1003 10 16 0.00 0.00
8:53 pm 20:53 Mostly Cloudy 55 12.8 50 10 83 83 NNW 9 15 29.68 1005 10 16 0.00 0.00
9:53 pm 21:53 Partly Cloudy 54 12.2 49 9.4 83 83 N 12 19 29.72 1007 10 16 0.00 0.00
10:07 pm 22:07 Mostly Cloudy 54 12.2 49 9.4 83 83 N 10 17 29.74 1007 10 16 0.00 0.00
10:53 pm 22:53 Cloudy 53 11.7 50 10 89 89 NNE 10 17 29.78 1008 10 16 0.00 0.00
11:53 pm 23:53 Cloudy 52 11.1 48 8.9 86 86 N 12 19 29.79 1009 10 16 0.00 0.00

Powered by AerisWeather